Index of /20260501/WXO-DD/model_rdps/10km/12/048
Name Last modified Size Description
Parent Directory -
20260501T12Z_MSC_RDPS_AbsoluteVorticity_IsbL-0250_RLatLon0.09_PT048H.grib2 2026-05-01 15:14 609K
20260501T12Z_MSC_RDPS_AbsoluteVorticity_IsbL-0500_RLatLon0.09_PT048H.grib2 2026-05-01 15:14 575K
20260501T12Z_MSC_RDPS_AbsoluteVorticity_IsbL-0700_RLatLon0.09_PT048H.grib2 2026-05-01 15:14 619K
20260501T12Z_MSC_RDPS_AbsoluteVorticity_IsbL-0850_RLatLon0.09_PT048H.grib2 2026-05-01 15:14 790K
20260501T12Z_MSC_RDPS_AirTemp_AGL-120m_RLatLon0.09_PT048H.grib2 2026-05-01 15:14 382K
20260501T12Z_MSC_RDPS_AirTemp_AGL-2m_RLatLon0.09_PT048H.grib2 2026-05-01 15:14 629K
20260501T12Z_MSC_RDPS_AirTemp_AGL-40m_RLatLon0.09_PT048H.grib2 2026-05-01 15:14 399K
20260501T12Z_MSC_RDPS_AirTemp_AGL-80m_RLatLon0.09_PT048H.grib2 2026-05-01 15:14 389K
20260501T12Z_MSC_RDPS_AirTemp_IsbL-0001_RLatLon0.09_PT048H.grib2 2026-05-01 15:14 308K
20260501T12Z_MSC_RDPS_AirTemp_IsbL-0005_RLatLon0.09_PT048H.grib2 2026-05-01 15:14 287K
20260501T12Z_MSC_RDPS_AirTemp_IsbL-0010_RLatLon0.09_PT048H.grib2 2026-05-01 15:14 300K
20260501T12Z_MSC_RDPS_AirTemp_IsbL-0020_RLatLon0.09_PT048H.grib2 2026-05-01 15:14 413K
20260501T12Z_MSC_RDPS_AirTemp_IsbL-0030_RLatLon0.09_PT048H.grib2 2026-05-01 15:14 340K
20260501T12Z_MSC_RDPS_AirTemp_IsbL-0050_RLatLon0.09_PT048H.grib2 2026-05-01 15:14 316K
20260501T12Z_MSC_RDPS_AirTemp_IsbL-0100_RLatLon0.09_PT048H.grib2 2026-05-01 15:14 391K
20260501T12Z_MSC_RDPS_AirTemp_IsbL-0150_RLatLon0.09_PT048H.grib2 2026-05-01 15:14 417K
20260501T12Z_MSC_RDPS_AirTemp_IsbL-0175_RLatLon0.09_PT048H.grib2 2026-05-01 15:14 405K
20260501T12Z_MSC_RDPS_AirTemp_IsbL-0200_RLatLon0.09_PT048H.grib2 2026-05-01 15:14 411K
20260501T12Z_MSC_RDPS_AirTemp_IsbL-0225_RLatLon0.09_PT048H.grib2 2026-05-01 15:14 415K
20260501T12Z_MSC_RDPS_AirTemp_IsbL-0250_RLatLon0.09_PT048H.grib2 2026-05-01 15:14 421K
20260501T12Z_MSC_RDPS_AirTemp_IsbL-0275_RLatLon0.09_PT048H.grib2 2026-05-01 15:14 402K
20260501T12Z_MSC_RDPS_AirTemp_IsbL-0300_RLatLon0.09_PT048H.grib2 2026-05-01 15:14 410K
20260501T12Z_MSC_RDPS_AirTemp_IsbL-0350_RLatLon0.09_PT048H.grib2 2026-05-01 15:14 425K
20260501T12Z_MSC_RDPS_AirTemp_IsbL-0400_RLatLon0.09_PT048H.grib2 2026-05-01 15:14 426K
20260501T12Z_MSC_RDPS_AirTemp_IsbL-0450_RLatLon0.09_PT048H.grib2 2026-05-01 15:14 399K
20260501T12Z_MSC_RDPS_AirTemp_IsbL-0500_RLatLon0.09_PT048H.grib2 2026-05-01 15:14 410K
20260501T12Z_MSC_RDPS_AirTemp_IsbL-0550_RLatLon0.09_PT048H.grib2 2026-05-01 15:14 427K
20260501T12Z_MSC_RDPS_AirTemp_IsbL-0600_RLatLon0.09_PT048H.grib2 2026-05-01 15:14 443K
20260501T12Z_MSC_RDPS_AirTemp_IsbL-0650_RLatLon0.09_PT048H.grib2 2026-05-01 15:14 456K
20260501T12Z_MSC_RDPS_AirTemp_IsbL-0700_RLatLon0.09_PT048H.grib2 2026-05-01 15:14 479K
20260501T12Z_MSC_RDPS_AirTemp_IsbL-0750_RLatLon0.09_PT048H.grib2 2026-05-01 15:14 520K
20260501T12Z_MSC_RDPS_AirTemp_IsbL-0800_RLatLon0.09_PT048H.grib2 2026-05-01 15:14 572K
20260501T12Z_MSC_RDPS_AirTemp_IsbL-0850_RLatLon0.09_PT048H.grib2 2026-05-01 15:14 634K
20260501T12Z_MSC_RDPS_AirTemp_IsbL-0875_RLatLon0.09_PT048H.grib2 2026-05-01 15:14 661K
20260501T12Z_MSC_RDPS_AirTemp_IsbL-0900_RLatLon0.09_PT048H.grib2 2026-05-01 15:14 672K
20260501T12Z_MSC_RDPS_AirTemp_IsbL-0925_RLatLon0.09_PT048H.grib2 2026-05-01 15:14 665K
20260501T12Z_MSC_RDPS_AirTemp_IsbL-0950_RLatLon0.09_PT048H.grib2 2026-05-01 15:14 529K
20260501T12Z_MSC_RDPS_AirTemp_IsbL-0970_RLatLon0.09_PT048H.grib2 2026-05-01 15:14 521K
20260501T12Z_MSC_RDPS_AirTemp_IsbL-0985_RLatLon0.09_PT048H.grib2 2026-05-01 15:14 639K
20260501T12Z_MSC_RDPS_AirTemp_IsbL-1000_RLatLon0.09_PT048H.grib2 2026-05-01 15:14 496K
20260501T12Z_MSC_RDPS_AirTemp_IsbL-1015_RLatLon0.09_PT048H.grib2 2026-05-01 15:14 495K
20260501T12Z_MSC_RDPS_Albedo_Sfc_RLatLon0.09_PT048H.grib2 2026-05-01 15:14 152K
20260501T12Z_MSC_RDPS_CAPE_Sfc_RLatLon0.09_PT048H.grib2 2026-05-01 15:14 1.6M
20260501T12Z_MSC_RDPS_CIN_Sfc_RLatLon0.09_PT048H.grib2 2026-05-01 15:14 1.0M
20260501T12Z_MSC_RDPS_CloudWater_EAtm_RLatLon0.09_PT048H.grib2 2026-05-01 15:14 220K
20260501T12Z_MSC_RDPS_ConvectivePrecip-Accum_Sfc_RLatLon0.09_PT048H.grib2 2026-05-01 15:14 1.0M
20260501T12Z_MSC_RDPS_DewPointDepression_AGL-2m_RLatLon0.09_PT048H.grib2 2026-05-01 15:14 401K
20260501T12Z_MSC_RDPS_DewPointDepression_IsbL-0001_RLatLon0.09_PT048H.grib2 2026-05-01 15:14 193
20260501T12Z_MSC_RDPS_DewPointDepression_IsbL-0005_RLatLon0.09_PT048H.grib2 2026-05-01 15:14 193
20260501T12Z_MSC_RDPS_DewPointDepression_IsbL-0010_RLatLon0.09_PT048H.grib2 2026-05-01 15:14 193
20260501T12Z_MSC_RDPS_DewPointDepression_IsbL-0020_RLatLon0.09_PT048H.grib2 2026-05-01 15:14 193
20260501T12Z_MSC_RDPS_DewPointDepression_IsbL-0030_RLatLon0.09_PT048H.grib2 2026-05-01 15:14 193
20260501T12Z_MSC_RDPS_DewPointDepression_IsbL-0050_RLatLon0.09_PT048H.grib2 2026-05-01 15:14 105K
20260501T12Z_MSC_RDPS_DewPointDepression_IsbL-0100_RLatLon0.09_PT048H.grib2 2026-05-01 15:14 119K
20260501T12Z_MSC_RDPS_DewPointDepression_IsbL-0150_RLatLon0.09_PT048H.grib2 2026-05-01 15:14 148K
20260501T12Z_MSC_RDPS_DewPointDepression_IsbL-0175_RLatLon0.09_PT048H.grib2 2026-05-01 15:14 181K
20260501T12Z_MSC_RDPS_DewPointDepression_IsbL-0200_RLatLon0.09_PT048H.grib2 2026-05-01 15:14 219K
20260501T12Z_MSC_RDPS_DewPointDepression_IsbL-0225_RLatLon0.09_PT048H.grib2 2026-05-01 15:14 256K
20260501T12Z_MSC_RDPS_DewPointDepression_IsbL-0250_RLatLon0.09_PT048H.grib2 2026-05-01 15:14 292K
20260501T12Z_MSC_RDPS_DewPointDepression_IsbL-0275_RLatLon0.09_PT048H.grib2 2026-05-01 15:14 304K
20260501T12Z_MSC_RDPS_DewPointDepression_IsbL-0300_RLatLon0.09_PT048H.grib2 2026-05-01 15:14 323K
20260501T12Z_MSC_RDPS_DewPointDepression_IsbL-0350_RLatLon0.09_PT048H.grib2 2026-05-01 15:14 332K
20260501T12Z_MSC_RDPS_DewPointDepression_IsbL-0400_RLatLon0.09_PT048H.grib2 2026-05-01 15:14 339K
20260501T12Z_MSC_RDPS_DewPointDepression_IsbL-0450_RLatLon0.09_PT048H.grib2 2026-05-01 15:14 344K
20260501T12Z_MSC_RDPS_DewPointDepression_IsbL-0500_RLatLon0.09_PT048H.grib2 2026-05-01 15:14 350K
20260501T12Z_MSC_RDPS_DewPointDepression_IsbL-0550_RLatLon0.09_PT048H.grib2 2026-05-01 15:14 362K
20260501T12Z_MSC_RDPS_DewPointDepression_IsbL-0600_RLatLon0.09_PT048H.grib2 2026-05-01 15:14 371K
20260501T12Z_MSC_RDPS_DewPointDepression_IsbL-0650_RLatLon0.09_PT048H.grib2 2026-05-01 15:14 375K
20260501T12Z_MSC_RDPS_DewPointDepression_IsbL-0700_RLatLon0.09_PT048H.grib2 2026-05-01 15:14 385K
20260501T12Z_MSC_RDPS_DewPointDepression_IsbL-0750_RLatLon0.09_PT048H.grib2 2026-05-01 15:14 402K
20260501T12Z_MSC_RDPS_DewPointDepression_IsbL-0800_RLatLon0.09_PT048H.grib2 2026-05-01 15:14 438K
20260501T12Z_MSC_RDPS_DewPointDepression_IsbL-0850_RLatLon0.09_PT048H.grib2 2026-05-01 15:14 474K
20260501T12Z_MSC_RDPS_DewPointDepression_IsbL-0875_RLatLon0.09_PT048H.grib2 2026-05-01 15:14 477K
20260501T12Z_MSC_RDPS_DewPointDepression_IsbL-0900_RLatLon0.09_PT048H.grib2 2026-05-01 15:14 464K
20260501T12Z_MSC_RDPS_DewPointDepression_IsbL-0925_RLatLon0.09_PT048H.grib2 2026-05-01 15:14 447K
20260501T12Z_MSC_RDPS_DewPointDepression_IsbL-0950_RLatLon0.09_PT048H.grib2 2026-05-01 15:14 443K
20260501T12Z_MSC_RDPS_DewPointDepression_IsbL-0970_RLatLon0.09_PT048H.grib2 2026-05-01 15:14 437K
20260501T12Z_MSC_RDPS_DewPointDepression_IsbL-0985_RLatLon0.09_PT048H.grib2 2026-05-01 15:14 432K
20260501T12Z_MSC_RDPS_DewPointDepression_IsbL-1000_RLatLon0.09_PT048H.grib2 2026-05-01 15:14 429K
20260501T12Z_MSC_RDPS_DewPointDepression_IsbL-1015_RLatLon0.09_PT048H.grib2 2026-05-01 15:14 420K
20260501T12Z_MSC_RDPS_DewPoint_AGL-2m_RLatLon0.09_PT048H.grib2 2026-05-01 15:14 397K
20260501T12Z_MSC_RDPS_DownwardLongwaveRadiationFlux-Accum_Sfc_RLatLon0.09_PT048H.grib2 2026-05-01 15:14 372K
20260501T12Z_MSC_RDPS_DownwardShortwaveRadiationFlux-Accum_NTAtm_RLatLon0.09_PT048H.grib2 2026-05-01 15:14 173K
20260501T12Z_MSC_RDPS_DownwardShortwaveRadiationFlux-Accum_Sfc_RLatLon0.09_PT048H.grib2 2026-05-01 15:14 557K
20260501T12Z_MSC_RDPS_FreezingRain-Accum12h_Sfc_RLatLon0.09_PT048H.grib2 2026-05-01 15:14 86K
20260501T12Z_MSC_RDPS_FreezingRain-Accum1h_Sfc_RLatLon0.09_PT048H.grib2 2026-05-01 15:14 36K
20260501T12Z_MSC_RDPS_FreezingRain-Accum24h_Sfc_RLatLon0.09_PT048H.grib2 2026-05-01 15:14 114K
20260501T12Z_MSC_RDPS_FreezingRain-Accum3h_Sfc_RLatLon0.09_PT048H.grib2 2026-05-01 15:14 50K
20260501T12Z_MSC_RDPS_FreezingRain-Accum6h_Sfc_RLatLon0.09_PT048H.grib2 2026-05-01 15:14 73K
20260501T12Z_MSC_RDPS_FreezingRain-Accum_Sfc_RLatLon0.09_PT048H.grib2 2026-05-01 15:14 173K
20260501T12Z_MSC_RDPS_GeopotentialHeight_IsbL-0001_RLatLon0.09_PT048H.grib2 2026-05-01 15:14 344K
20260501T12Z_MSC_RDPS_GeopotentialHeight_IsbL-0005_RLatLon0.09_PT048H.grib2 2026-05-01 15:14 304K
20260501T12Z_MSC_RDPS_GeopotentialHeight_IsbL-0010_RLatLon0.09_PT048H.grib2 2026-05-01 15:14 306K
20260501T12Z_MSC_RDPS_GeopotentialHeight_IsbL-0020_RLatLon0.09_PT048H.grib2 2026-05-01 15:14 402K
20260501T12Z_MSC_RDPS_GeopotentialHeight_IsbL-0030_RLatLon0.09_PT048H.grib2 2026-05-01 15:14 405K
20260501T12Z_MSC_RDPS_GeopotentialHeight_IsbL-0050_RLatLon0.09_PT048H.grib2 2026-05-01 15:14 311K
20260501T12Z_MSC_RDPS_GeopotentialHeight_IsbL-0100_RLatLon0.09_PT048H.grib2 2026-05-01 15:14 286K
20260501T12Z_MSC_RDPS_GeopotentialHeight_IsbL-0150_RLatLon0.09_PT048H.grib2 2026-05-01 15:14 231K
20260501T12Z_MSC_RDPS_GeopotentialHeight_IsbL-0175_RLatLon0.09_PT048H.grib2 2026-05-01 15:14 233K
20260501T12Z_MSC_RDPS_GeopotentialHeight_IsbL-0200_RLatLon0.09_PT048H.grib2 2026-05-01 15:14 266K
20260501T12Z_MSC_RDPS_GeopotentialHeight_IsbL-0225_RLatLon0.09_PT048H.grib2 2026-05-01 15:14 266K
20260501T12Z_MSC_RDPS_GeopotentialHeight_IsbL-0250_RLatLon0.09_PT048H.grib2 2026-05-01 15:14 267K
20260501T12Z_MSC_RDPS_GeopotentialHeight_IsbL-0275_RLatLon0.09_PT048H.grib2 2026-05-01 15:14 266K
20260501T12Z_MSC_RDPS_GeopotentialHeight_IsbL-0300_RLatLon0.09_PT048H.grib2 2026-05-01 15:14 235K
20260501T12Z_MSC_RDPS_GeopotentialHeight_IsbL-0350_RLatLon0.09_PT048H.grib2 2026-05-01 15:14 231K
20260501T12Z_MSC_RDPS_GeopotentialHeight_IsbL-0400_RLatLon0.09_PT048H.grib2 2026-05-01 15:14 228K
20260501T12Z_MSC_RDPS_GeopotentialHeight_IsbL-0450_RLatLon0.09_PT048H.grib2 2026-05-01 15:14 298K
20260501T12Z_MSC_RDPS_GeopotentialHeight_IsbL-0500_RLatLon0.09_PT048H.grib2 2026-05-01 15:14 293K
20260501T12Z_MSC_RDPS_GeopotentialHeight_IsbL-0550_RLatLon0.09_PT048H.grib2 2026-05-01 15:14 289K
20260501T12Z_MSC_RDPS_GeopotentialHeight_IsbL-0600_RLatLon0.09_PT048H.grib2 2026-05-01 15:14 286K
20260501T12Z_MSC_RDPS_GeopotentialHeight_IsbL-0650_RLatLon0.09_PT048H.grib2 2026-05-01 15:14 255K
20260501T12Z_MSC_RDPS_GeopotentialHeight_IsbL-0700_RLatLon0.09_PT048H.grib2 2026-05-01 15:14 254K
20260501T12Z_MSC_RDPS_GeopotentialHeight_IsbL-0750_RLatLon0.09_PT048H.grib2 2026-05-01 15:14 256K
20260501T12Z_MSC_RDPS_GeopotentialHeight_IsbL-0800_RLatLon0.09_PT048H.grib2 2026-05-01 15:14 349K
20260501T12Z_MSC_RDPS_GeopotentialHeight_IsbL-0850_RLatLon0.09_PT048H.grib2 2026-05-01 15:14 359K
20260501T12Z_MSC_RDPS_GeopotentialHeight_IsbL-0875_RLatLon0.09_PT048H.grib2 2026-05-01 15:14 361K
20260501T12Z_MSC_RDPS_GeopotentialHeight_IsbL-0900_RLatLon0.09_PT048H.grib2 2026-05-01 15:14 366K
20260501T12Z_MSC_RDPS_GeopotentialHeight_IsbL-0925_RLatLon0.09_PT048H.grib2 2026-05-01 15:14 367K
20260501T12Z_MSC_RDPS_GeopotentialHeight_IsbL-0950_RLatLon0.09_PT048H.grib2 2026-05-01 15:14 372K
20260501T12Z_MSC_RDPS_GeopotentialHeight_IsbL-0970_RLatLon0.09_PT048H.grib2 2026-05-01 15:14 377K
20260501T12Z_MSC_RDPS_GeopotentialHeight_IsbL-0985_RLatLon0.09_PT048H.grib2 2026-05-01 15:14 385K
20260501T12Z_MSC_RDPS_GeopotentialHeight_IsbL-1000_RLatLon0.09_PT048H.grib2 2026-05-01 15:14 397K
20260501T12Z_MSC_RDPS_GeopotentialHeight_IsbL-1015_RLatLon0.09_PT048H.grib2 2026-05-01 15:14 412K
20260501T12Z_MSC_RDPS_Humidex_Sfc_RLatLon0.09_PT048H.grib2 2026-05-01 15:14 2.4M
20260501T12Z_MSC_RDPS_IcePellets-Accum12h_Sfc_RLatLon0.09_PT048H.grib2 2026-05-01 15:14 6.7K
20260501T12Z_MSC_RDPS_IcePellets-Accum1h_Sfc_RLatLon0.09_PT048H.grib2 2026-05-01 15:14 3.5K
20260501T12Z_MSC_RDPS_IcePellets-Accum24h_Sfc_RLatLon0.09_PT048H.grib2 2026-05-01 15:14 16K
20260501T12Z_MSC_RDPS_IcePellets-Accum3h_Sfc_RLatLon0.09_PT048H.grib2 2026-05-01 15:14 5.3K
20260501T12Z_MSC_RDPS_IcePellets-Accum6h_Sfc_RLatLon0.09_PT048H.grib2 2026-05-01 15:14 5.2K
20260501T12Z_MSC_RDPS_IcePellets-Accum_Sfc_RLatLon0.09_PT048H.grib2 2026-05-01 15:14 25K
20260501T12Z_MSC_RDPS_KIndex_Sfc_RLatLon0.09_PT048H.grib2 2026-05-01 15:14 2.4M
20260501T12Z_MSC_RDPS_LatentHeatNetFlux_Sfc_RLatLon0.09_PT048H.grib2 2026-05-01 15:14 429K
20260501T12Z_MSC_RDPS_LiftedIndex-MU-VT_IsbL-0500_RLatLon0.09_PT048H.grib2 2026-05-01 15:14 2.4M
20260501T12Z_MSC_RDPS_NetLongwaveRadiationFlux-Accum_Sfc_RLatLon0.09_PT048H.grib2 2026-05-01 15:14 549K
20260501T12Z_MSC_RDPS_NetShortwaveRadiationFlux-Accum_Sfc_RLatLon0.09_PT048H.grib2 2026-05-01 15:14 559K
20260501T12Z_MSC_RDPS_PlanetaryBoundaryLayerHeight_Sfc_RLatLon0.09_PT048H.grib2 2026-05-01 15:14 1.1M
20260501T12Z_MSC_RDPS_Precip-Accum12h_Sfc_RLatLon0.09_PT048H.grib2 2026-05-01 15:14 1.6M
20260501T12Z_MSC_RDPS_Precip-Accum1h_Sfc_RLatLon0.09_PT048H.grib2 2026-05-01 15:14 1.3M
20260501T12Z_MSC_RDPS_Precip-Accum24h_Sfc_RLatLon0.09_PT048H.grib2 2026-05-01 15:14 1.8M
20260501T12Z_MSC_RDPS_Precip-Accum3h_Sfc_RLatLon0.09_PT048H.grib2 2026-05-01 15:14 1.4M
20260501T12Z_MSC_RDPS_Precip-Accum6h_Sfc_RLatLon0.09_PT048H.grib2 2026-05-01 15:14 1.4M
20260501T12Z_MSC_RDPS_Precip-Accum_Sfc_RLatLon0.09_PT048H.grib2 2026-05-01 15:14 2.1M
20260501T12Z_MSC_RDPS_PrecipRate_Sfc_RLatLon0.09_PT048H.grib2 2026-05-01 15:14 183K
20260501T12Z_MSC_RDPS_PrecipType-Instant_Sfc_RLatLon0.09_PT048H.grib2 2026-05-01 15:14 600K
20260501T12Z_MSC_RDPS_Pressure-Trend3h_Sfc_RLatLon0.09_PT048H.grib2 2026-05-01 15:14 1.2M
20260501T12Z_MSC_RDPS_Pressure_MSL_RLatLon0.09_PT048H.grib2 2026-05-01 15:14 328K
20260501T12Z_MSC_RDPS_Pressure_PVU-1.5_RLatLon0.09_PT048H.grib2 2026-05-01 15:14 2.3M
20260501T12Z_MSC_RDPS_Pressure_PVU-1_RLatLon0.09_PT048H.grib2 2026-05-01 15:14 2.4M
20260501T12Z_MSC_RDPS_Pressure_PVU-2_RLatLon0.09_PT048H.grib2 2026-05-01 15:14 2.4M
20260501T12Z_MSC_RDPS_Pressure_Sfc_RLatLon0.09_PT048H.grib2 2026-05-01 15:14 501K
20260501T12Z_MSC_RDPS_RadiativeTemp_Sfc_RLatLon0.09_PT048H.grib2 2026-05-01 15:14 304K
20260501T12Z_MSC_RDPS_Rain-Accum12h_Sfc_RLatLon0.09_PT048H.grib2 2026-05-01 15:14 1.1M
20260501T12Z_MSC_RDPS_Rain-Accum1h_Sfc_RLatLon0.09_PT048H.grib2 2026-05-01 15:14 634K
20260501T12Z_MSC_RDPS_Rain-Accum24h_Sfc_RLatLon0.09_PT048H.grib2 2026-05-01 15:14 1.3M
20260501T12Z_MSC_RDPS_Rain-Accum3h_Sfc_RLatLon0.09_PT048H.grib2 2026-05-01 15:14 639K
20260501T12Z_MSC_RDPS_Rain-Accum6h_Sfc_RLatLon0.09_PT048H.grib2 2026-05-01 15:14 895K
20260501T12Z_MSC_RDPS_Rain-Accum_Sfc_RLatLon0.09_PT048H.grib2 2026-05-01 15:14 1.7M
20260501T12Z_MSC_RDPS_RelativeHumidity_AGL-2m_RLatLon0.09_PT048H.grib2 2026-05-01 15:14 1.0M
20260501T12Z_MSC_RDPS_RelativeHumidity_IsbL-0010_RLatLon0.09_PT048H.grib2 2026-05-01 15:14 633K
20260501T12Z_MSC_RDPS_RelativeHumidity_IsbL-0020_RLatLon0.09_PT048H.grib2 2026-05-01 15:14 669K
20260501T12Z_MSC_RDPS_RelativeHumidity_IsbL-0030_RLatLon0.09_PT048H.grib2 2026-05-01 15:14 606K
20260501T12Z_MSC_RDPS_RelativeHumidity_IsbL-0050_RLatLon0.09_PT048H.grib2 2026-05-01 15:14 484K
20260501T12Z_MSC_RDPS_RelativeHumidity_IsbL-0100_RLatLon0.09_PT048H.grib2 2026-05-01 15:14 279K
20260501T12Z_MSC_RDPS_RelativeHumidity_IsbL-0150_RLatLon0.09_PT048H.grib2 2026-05-01 15:14 415K
20260501T12Z_MSC_RDPS_RelativeHumidity_IsbL-0175_RLatLon0.09_PT048H.grib2 2026-05-01 15:14 473K
20260501T12Z_MSC_RDPS_RelativeHumidity_IsbL-0200_RLatLon0.09_PT048H.grib2 2026-05-01 15:14 552K
20260501T12Z_MSC_RDPS_RelativeHumidity_IsbL-0225_RLatLon0.09_PT048H.grib2 2026-05-01 15:14 615K
20260501T12Z_MSC_RDPS_RelativeHumidity_IsbL-0250_RLatLon0.09_PT048H.grib2 2026-05-01 15:14 675K
20260501T12Z_MSC_RDPS_RelativeHumidity_IsbL-0275_RLatLon0.09_PT048H.grib2 2026-05-01 15:14 698K
20260501T12Z_MSC_RDPS_RelativeHumidity_IsbL-0300_RLatLon0.09_PT048H.grib2 2026-05-01 15:14 741K
20260501T12Z_MSC_RDPS_RelativeHumidity_IsbL-0350_RLatLon0.09_PT048H.grib2 2026-05-01 15:14 770K
20260501T12Z_MSC_RDPS_RelativeHumidity_IsbL-0400_RLatLon0.09_PT048H.grib2 2026-05-01 15:14 784K
20260501T12Z_MSC_RDPS_RelativeHumidity_IsbL-0450_RLatLon0.09_PT048H.grib2 2026-05-01 15:14 789K
20260501T12Z_MSC_RDPS_RelativeHumidity_IsbL-0500_RLatLon0.09_PT048H.grib2 2026-05-01 15:14 797K
20260501T12Z_MSC_RDPS_RelativeHumidity_IsbL-0550_RLatLon0.09_PT048H.grib2 2026-05-01 15:14 818K
20260501T12Z_MSC_RDPS_RelativeHumidity_IsbL-0600_RLatLon0.09_PT048H.grib2 2026-05-01 15:14 836K
20260501T12Z_MSC_RDPS_RelativeHumidity_IsbL-0650_RLatLon0.09_PT048H.grib2 2026-05-01 15:14 846K
20260501T12Z_MSC_RDPS_RelativeHumidity_IsbL-0700_RLatLon0.09_PT048H.grib2 2026-05-01 15:14 876K
20260501T12Z_MSC_RDPS_RelativeHumidity_IsbL-0750_RLatLon0.09_PT048H.grib2 2026-05-01 15:14 915K
20260501T12Z_MSC_RDPS_RelativeHumidity_IsbL-0800_RLatLon0.09_PT048H.grib2 2026-05-01 15:14 1.0M
20260501T12Z_MSC_RDPS_RelativeHumidity_IsbL-0850_RLatLon0.09_PT048H.grib2 2026-05-01 15:14 1.0M
20260501T12Z_MSC_RDPS_RelativeHumidity_IsbL-0875_RLatLon0.09_PT048H.grib2 2026-05-01 15:14 1.1M
20260501T12Z_MSC_RDPS_RelativeHumidity_IsbL-0900_RLatLon0.09_PT048H.grib2 2026-05-01 15:14 1.1M
20260501T12Z_MSC_RDPS_RelativeHumidity_IsbL-0925_RLatLon0.09_PT048H.grib2 2026-05-01 15:14 1.1M
20260501T12Z_MSC_RDPS_RelativeHumidity_IsbL-0950_RLatLon0.09_PT048H.grib2 2026-05-01 15:14 1.1M
20260501T12Z_MSC_RDPS_RelativeHumidity_IsbL-0970_RLatLon0.09_PT048H.grib2 2026-05-01 15:14 1.1M
20260501T12Z_MSC_RDPS_RelativeHumidity_IsbL-0985_RLatLon0.09_PT048H.grib2 2026-05-01 15:14 1.0M
20260501T12Z_MSC_RDPS_RelativeHumidity_IsbL-1000_RLatLon0.09_PT048H.grib2 2026-05-01 15:14 1.0M
20260501T12Z_MSC_RDPS_RelativeHumidity_IsbL-1015_RLatLon0.09_PT048H.grib2 2026-05-01 15:14 1.0M
20260501T12Z_MSC_RDPS_Runoff-Accum_Sfc_RLatLon0.09_PT048H.grib2 2026-05-01 15:14 57K
20260501T12Z_MSC_RDPS_SWEATIndex_Sfc_RLatLon0.09_PT048H.grib2 2026-05-01 15:14 2.4M
20260501T12Z_MSC_RDPS_SeeingIndex_EAtm_RLatLon0.09_PT048H.grib2 2026-05-01 15:14 1.0M
20260501T12Z_MSC_RDPS_SensibleHeatNetFlux_Sfc_RLatLon0.09_PT048H.grib2 2026-05-01 15:14 309K
20260501T12Z_MSC_RDPS_ShowalterIndex_IsbL-0500_RLatLon0.09_PT048H.grib2 2026-05-01 15:14 2.6M
20260501T12Z_MSC_RDPS_SkyTransparencyIndex_EAtm_RLatLon0.09_PT048H.grib2 2026-05-01 15:14 701K
20260501T12Z_MSC_RDPS_Snow-Accum12h_Sfc_RLatLon0.09_PT048H.grib2 2026-05-01 15:14 624K
20260501T12Z_MSC_RDPS_Snow-Accum1h_Sfc_RLatLon0.09_PT048H.grib2 2026-05-01 15:14 524K
20260501T12Z_MSC_RDPS_Snow-Accum24h_Sfc_RLatLon0.09_PT048H.grib2 2026-05-01 15:14 647K
20260501T12Z_MSC_RDPS_Snow-Accum3h_Sfc_RLatLon0.09_PT048H.grib2 2026-05-01 15:14 561K
20260501T12Z_MSC_RDPS_Snow-Accum6h_Sfc_RLatLon0.09_PT048H.grib2 2026-05-01 15:14 606K
20260501T12Z_MSC_RDPS_Snow-Accum_Sfc_RLatLon0.09_PT048H.grib2 2026-05-01 15:14 705K
20260501T12Z_MSC_RDPS_SnowDensity_Sfc_RLatLon0.09_PT048H.grib2 2026-05-01 15:14 172K
20260501T12Z_MSC_RDPS_SnowDepth_Sfc_RLatLon0.09_PT048H.grib2 2026-05-01 15:14 657K
20260501T12Z_MSC_RDPS_SoilTemp_DBS-0to10cm_RLatLon0.09_PT048H.grib2 2026-05-01 15:14 236K
20260501T12Z_MSC_RDPS_SoilTemp_Sfc_RLatLon0.09_PT048H.grib2 2026-05-01 15:14 272K
20260501T12Z_MSC_RDPS_SoilVolumetricIceContent_Sfc_RLatLon0.09_PT048H.grib2 2026-05-01 15:14 158K
20260501T12Z_MSC_RDPS_SoilVolumetricWaterContent_DBS-0to10cm_RLatLon0.09_PT048H.grib2 2026-05-01 15:14 273K
20260501T12Z_MSC_RDPS_SoilVolumetricWaterContent_DBS-0to1cm_RLatLon0.09_PT048H.grib2 2026-05-01 15:14 343K
20260501T12Z_MSC_RDPS_SpecificHumidity_AGL-120m_RLatLon0.09_PT048H.grib2 2026-05-01 15:14 494K
20260501T12Z_MSC_RDPS_SpecificHumidity_AGL-2m_RLatLon0.09_PT048H.grib2 2026-05-01 15:14 660K
20260501T12Z_MSC_RDPS_SpecificHumidity_AGL-40m_RLatLon0.09_PT048H.grib2 2026-05-01 15:14 500K
20260501T12Z_MSC_RDPS_SpecificHumidity_AGL-80m_RLatLon0.09_PT048H.grib2 2026-05-01 15:14 496K
20260501T12Z_MSC_RDPS_SpecificHumidity_IsbL-0001_RLatLon0.09_PT048H.grib2 2026-05-01 15:14 402K
20260501T12Z_MSC_RDPS_SpecificHumidity_IsbL-0005_RLatLon0.09_PT048H.grib2 2026-05-01 15:14 366K
20260501T12Z_MSC_RDPS_SpecificHumidity_IsbL-0010_RLatLon0.09_PT048H.grib2 2026-05-01 15:14 398K
20260501T12Z_MSC_RDPS_SpecificHumidity_IsbL-0020_RLatLon0.09_PT048H.grib2 2026-05-01 15:14 377K
20260501T12Z_MSC_RDPS_SpecificHumidity_IsbL-0030_RLatLon0.09_PT048H.grib2 2026-05-01 15:14 371K
20260501T12Z_MSC_RDPS_SpecificHumidity_IsbL-0050_RLatLon0.09_PT048H.grib2 2026-05-01 15:14 479K
20260501T12Z_MSC_RDPS_SpecificHumidity_IsbL-0100_RLatLon0.09_PT048H.grib2 2026-05-01 15:14 422K
20260501T12Z_MSC_RDPS_SpecificHumidity_IsbL-0150_RLatLon0.09_PT048H.grib2 2026-05-01 15:14 454K
20260501T12Z_MSC_RDPS_SpecificHumidity_IsbL-0175_RLatLon0.09_PT048H.grib2 2026-05-01 15:14 536K
20260501T12Z_MSC_RDPS_SpecificHumidity_IsbL-0200_RLatLon0.09_PT048H.grib2 2026-05-01 15:14 453K
20260501T12Z_MSC_RDPS_SpecificHumidity_IsbL-0225_RLatLon0.09_PT048H.grib2 2026-05-01 15:14 451K
20260501T12Z_MSC_RDPS_SpecificHumidity_IsbL-0250_RLatLon0.09_PT048H.grib2 2026-05-01 15:14 507K
20260501T12Z_MSC_RDPS_SpecificHumidity_IsbL-0275_RLatLon0.09_PT048H.grib2 2026-05-01 15:14 464K
20260501T12Z_MSC_RDPS_SpecificHumidity_IsbL-0300_RLatLon0.09_PT048H.grib2 2026-05-01 15:14 439K
20260501T12Z_MSC_RDPS_SpecificHumidity_IsbL-0350_RLatLon0.09_PT048H.grib2 2026-05-01 15:14 440K
20260501T12Z_MSC_RDPS_SpecificHumidity_IsbL-0400_RLatLon0.09_PT048H.grib2 2026-05-01 15:14 518K
20260501T12Z_MSC_RDPS_SpecificHumidity_IsbL-0450_RLatLon0.09_PT048H.grib2 2026-05-01 15:14 568K
20260501T12Z_MSC_RDPS_SpecificHumidity_IsbL-0500_RLatLon0.09_PT048H.grib2 2026-05-01 15:14 503K
20260501T12Z_MSC_RDPS_SpecificHumidity_IsbL-0550_RLatLon0.09_PT048H.grib2 2026-05-01 15:14 561K
20260501T12Z_MSC_RDPS_SpecificHumidity_IsbL-0600_RLatLon0.09_PT048H.grib2 2026-05-01 15:14 629K
20260501T12Z_MSC_RDPS_SpecificHumidity_IsbL-0650_RLatLon0.09_PT048H.grib2 2026-05-01 15:14 543K
20260501T12Z_MSC_RDPS_SpecificHumidity_IsbL-0700_RLatLon0.09_PT048H.grib2 2026-05-01 15:14 584K
20260501T12Z_MSC_RDPS_SpecificHumidity_IsbL-0750_RLatLon0.09_PT048H.grib2 2026-05-01 15:14 637K
20260501T12Z_MSC_RDPS_SpecificHumidity_IsbL-0800_RLatLon0.09_PT048H.grib2 2026-05-01 15:14 712K
20260501T12Z_MSC_RDPS_SpecificHumidity_IsbL-0850_RLatLon0.09_PT048H.grib2 2026-05-01 15:14 803K
20260501T12Z_MSC_RDPS_SpecificHumidity_IsbL-0875_RLatLon0.09_PT048H.grib2 2026-05-01 15:14 833K
20260501T12Z_MSC_RDPS_SpecificHumidity_IsbL-0900_RLatLon0.09_PT048H.grib2 2026-05-01 15:14 844K
20260501T12Z_MSC_RDPS_SpecificHumidity_IsbL-0925_RLatLon0.09_PT048H.grib2 2026-05-01 15:14 839K
20260501T12Z_MSC_RDPS_SpecificHumidity_IsbL-0950_RLatLon0.09_PT048H.grib2 2026-05-01 15:14 841K
20260501T12Z_MSC_RDPS_SpecificHumidity_IsbL-0970_RLatLon0.09_PT048H.grib2 2026-05-01 15:14 835K
20260501T12Z_MSC_RDPS_SpecificHumidity_IsbL-0985_RLatLon0.09_PT048H.grib2 2026-05-01 15:14 688K
20260501T12Z_MSC_RDPS_SpecificHumidity_IsbL-1000_RLatLon0.09_PT048H.grib2 2026-05-01 15:14 683K
20260501T12Z_MSC_RDPS_SpecificHumidity_IsbL-1015_RLatLon0.09_PT048H.grib2 2026-05-01 15:14 673K
20260501T12Z_MSC_RDPS_SpecificHumidity_Sfc_RLatLon0.09_PT048H.grib2 2026-05-01 15:14 297K
20260501T12Z_MSC_RDPS_StormRelativeHelicity_EtaL-10000_RLatLon0.09_PT048H.grib2 2026-05-01 15:14 1.1M
20260501T12Z_MSC_RDPS_StormSeverityIndex_EtaL-10000_RLatLon0.09_PT048H.grib2 2026-05-01 15:14 1.2M
20260501T12Z_MSC_RDPS_Thickness_IsbL-0850to0700_RLatLon0.09_PT048H.grib2 2026-05-01 15:14 176K
20260501T12Z_MSC_RDPS_Thickness_IsbL-1000to0500_RLatLon0.09_PT048H.grib2 2026-05-01 15:14 197K
20260501T12Z_MSC_RDPS_Thickness_IsbL-1000to0850_RLatLon0.09_PT048H.grib2 2026-05-01 15:14 263K
20260501T12Z_MSC_RDPS_TotalCloudCover_Sfc_RLatLon0.09_PT048H.grib2 2026-05-01 15:14 669K
20260501T12Z_MSC_RDPS_TotalTotalsIndex_Sfc_RLatLon0.09_PT048H.grib2 2026-05-01 15:14 2.3M
20260501T12Z_MSC_RDPS_UVIndex-ClearSky_Sfc_RLatLon0.09_PT048H.grib2 2026-05-01 15:14 144K
20260501T12Z_MSC_RDPS_UVIndex_Sfc_RLatLon0.09_PT048H.grib2 2026-05-01 15:14 345K
20260501T12Z_MSC_RDPS_UpwardLongwaveRadiationFlux_NTAtm_RLatLon0.09_PT048H.grib2 2026-05-01 15:14 486K
20260501T12Z_MSC_RDPS_UpwardShortwaveRadiationFlux_NTAtm_RLatLon0.09_PT048H.grib2 2026-05-01 15:14 308K
20260501T12Z_MSC_RDPS_VerticalVelocity_IsbL-0250_RLatLon0.09_PT048H.grib2 2026-05-01 15:14 430K
20260501T12Z_MSC_RDPS_VerticalVelocity_IsbL-0500_RLatLon0.09_PT048H.grib2 2026-05-01 15:14 544K
20260501T12Z_MSC_RDPS_VerticalVelocity_IsbL-0700_RLatLon0.09_PT048H.grib2 2026-05-01 15:14 594K
20260501T12Z_MSC_RDPS_VerticalVelocity_IsbL-0850_RLatLon0.09_PT048H.grib2 2026-05-01 15:14 700K
20260501T12Z_MSC_RDPS_VerticalWindShear_EtaL-6500_RLatLon0.09_PT048H.grib2 2026-05-01 15:14 1.2M
20260501T12Z_MSC_RDPS_WindChill_Sfc_RLatLon0.09_PT048H.grib2 2026-05-01 15:14 1.2M
20260501T12Z_MSC_RDPS_WindDir_AGL-10m_RLatLon0.09_PT048H.grib2 2026-05-01 15:14 1.0M
20260501T12Z_MSC_RDPS_WindDir_AGL-120m_RLatLon0.09_PT048H.grib2 2026-05-01 15:14 614K
20260501T12Z_MSC_RDPS_WindDir_AGL-40m_RLatLon0.09_PT048H.grib2 2026-05-01 15:14 648K
20260501T12Z_MSC_RDPS_WindDir_AGL-80m_RLatLon0.09_PT048H.grib2 2026-05-01 15:14 627K
20260501T12Z_MSC_RDPS_WindDir_IsbL-0001_RLatLon0.09_PT048H.grib2 2026-05-01 15:14 310K
20260501T12Z_MSC_RDPS_WindDir_IsbL-0005_RLatLon0.09_PT048H.grib2 2026-05-01 15:14 387K
20260501T12Z_MSC_RDPS_WindDir_IsbL-0010_RLatLon0.09_PT048H.grib2 2026-05-01 15:14 393K
20260501T12Z_MSC_RDPS_WindDir_IsbL-0020_RLatLon0.09_PT048H.grib2 2026-05-01 15:14 444K
20260501T12Z_MSC_RDPS_WindDir_IsbL-0030_RLatLon0.09_PT048H.grib2 2026-05-01 15:14 423K
20260501T12Z_MSC_RDPS_WindDir_IsbL-0050_RLatLon0.09_PT048H.grib2 2026-05-01 15:14 415K
20260501T12Z_MSC_RDPS_WindDir_IsbL-0100_RLatLon0.09_PT048H.grib2 2026-05-01 15:14 412K
20260501T12Z_MSC_RDPS_WindDir_IsbL-0150_RLatLon0.09_PT048H.grib2 2026-05-01 15:14 413K
20260501T12Z_MSC_RDPS_WindDir_IsbL-0175_RLatLon0.09_PT048H.grib2 2026-05-01 15:14 429K
20260501T12Z_MSC_RDPS_WindDir_IsbL-0200_RLatLon0.09_PT048H.grib2 2026-05-01 15:14 441K
20260501T12Z_MSC_RDPS_WindDir_IsbL-0225_RLatLon0.09_PT048H.grib2 2026-05-01 15:14 448K
20260501T12Z_MSC_RDPS_WindDir_IsbL-0250_RLatLon0.09_PT048H.grib2 2026-05-01 15:14 454K
20260501T12Z_MSC_RDPS_WindDir_IsbL-0275_RLatLon0.09_PT048H.grib2 2026-05-01 15:14 478K
20260501T12Z_MSC_RDPS_WindDir_IsbL-0300_RLatLon0.09_PT048H.grib2 2026-05-01 15:14 475K
20260501T12Z_MSC_RDPS_WindDir_IsbL-0350_RLatLon0.09_PT048H.grib2 2026-05-01 15:14 501K
20260501T12Z_MSC_RDPS_WindDir_IsbL-0400_RLatLon0.09_PT048H.grib2 2026-05-01 15:14 521K
20260501T12Z_MSC_RDPS_WindDir_IsbL-0450_RLatLon0.09_PT048H.grib2 2026-05-01 15:14 529K
20260501T12Z_MSC_RDPS_WindDir_IsbL-0500_RLatLon0.09_PT048H.grib2 2026-05-01 15:14 538K
20260501T12Z_MSC_RDPS_WindDir_IsbL-0550_RLatLon0.09_PT048H.grib2 2026-05-01 15:14 548K
20260501T12Z_MSC_RDPS_WindDir_IsbL-0600_RLatLon0.09_PT048H.grib2 2026-05-01 15:14 569K
20260501T12Z_MSC_RDPS_WindDir_IsbL-0650_RLatLon0.09_PT048H.grib2 2026-05-01 15:14 605K
20260501T12Z_MSC_RDPS_WindDir_IsbL-0700_RLatLon0.09_PT048H.grib2 2026-05-01 15:14 644K
20260501T12Z_MSC_RDPS_WindDir_IsbL-0750_RLatLon0.09_PT048H.grib2 2026-05-01 15:14 691K
20260501T12Z_MSC_RDPS_WindDir_IsbL-0800_RLatLon0.09_PT048H.grib2 2026-05-01 15:14 767K
20260501T12Z_MSC_RDPS_WindDir_IsbL-0850_RLatLon0.09_PT048H.grib2 2026-05-01 15:14 860K
20260501T12Z_MSC_RDPS_WindDir_IsbL-0875_RLatLon0.09_PT048H.grib2 2026-05-01 15:14 898K
20260501T12Z_MSC_RDPS_WindDir_IsbL-0900_RLatLon0.09_PT048H.grib2 2026-05-01 15:14 916K
20260501T12Z_MSC_RDPS_WindDir_IsbL-0925_RLatLon0.09_PT048H.grib2 2026-05-01 15:14 925K
20260501T12Z_MSC_RDPS_WindDir_IsbL-0950_RLatLon0.09_PT048H.grib2 2026-05-01 15:14 925K
20260501T12Z_MSC_RDPS_WindDir_IsbL-0970_RLatLon0.09_PT048H.grib2 2026-05-01 15:14 933K
20260501T12Z_MSC_RDPS_WindDir_IsbL-0985_RLatLon0.09_PT048H.grib2 2026-05-01 15:14 942K
20260501T12Z_MSC_RDPS_WindDir_IsbL-1000_RLatLon0.09_PT048H.grib2 2026-05-01 15:14 958K
20260501T12Z_MSC_RDPS_WindDir_IsbL-1015_RLatLon0.09_PT048H.grib2 2026-05-01 15:14 1.0M
20260501T12Z_MSC_RDPS_WindGust-Max_AGL-10m_RLatLon0.09_PT048H.grib2 2026-05-01 15:14 1.0M
20260501T12Z_MSC_RDPS_WindGust-Min_AGL-10m_RLatLon0.09_PT048H.grib2 2026-05-01 15:14 1.0M
20260501T12Z_MSC_RDPS_WindGust_AGL-10m_RLatLon0.09_PT048H.grib2 2026-05-01 15:14 1.0M
20260501T12Z_MSC_RDPS_WindSpeed_AGL-10m_RLatLon0.09_PT048H.grib2 2026-05-01 15:14 849K
20260501T12Z_MSC_RDPS_WindSpeed_AGL-120m_RLatLon0.09_PT048H.grib2 2026-05-01 15:14 549K
20260501T12Z_MSC_RDPS_WindSpeed_AGL-40m_RLatLon0.09_PT048H.grib2 2026-05-01 15:14 549K
20260501T12Z_MSC_RDPS_WindSpeed_AGL-80m_RLatLon0.09_PT048H.grib2 2026-05-01 15:14 548K
20260501T12Z_MSC_RDPS_WindSpeed_IsbL-0001_RLatLon0.09_PT048H.grib2 2026-05-01 15:14 254K
20260501T12Z_MSC_RDPS_WindSpeed_IsbL-0005_RLatLon0.09_PT048H.grib2 2026-05-01 15:14 381K
20260501T12Z_MSC_RDPS_WindSpeed_IsbL-0010_RLatLon0.09_PT048H.grib2 2026-05-01 15:14 399K
20260501T12Z_MSC_RDPS_WindSpeed_IsbL-0020_RLatLon0.09_PT048H.grib2 2026-05-01 15:14 424K
20260501T12Z_MSC_RDPS_WindSpeed_IsbL-0030_RLatLon0.09_PT048H.grib2 2026-05-01 15:14 325K
20260501T12Z_MSC_RDPS_WindSpeed_IsbL-0050_RLatLon0.09_PT048H.grib2 2026-05-01 15:14 352K
20260501T12Z_MSC_RDPS_WindSpeed_IsbL-0100_RLatLon0.09_PT048H.grib2 2026-05-01 15:14 477K
20260501T12Z_MSC_RDPS_WindSpeed_IsbL-0150_RLatLon0.09_PT048H.grib2 2026-05-01 15:14 406K
20260501T12Z_MSC_RDPS_WindSpeed_IsbL-0175_RLatLon0.09_PT048H.grib2 2026-05-01 15:14 426K
20260501T12Z_MSC_RDPS_WindSpeed_IsbL-0200_RLatLon0.09_PT048H.grib2 2026-05-01 15:14 441K
20260501T12Z_MSC_RDPS_WindSpeed_IsbL-0225_RLatLon0.09_PT048H.grib2 2026-05-01 15:14 448K
20260501T12Z_MSC_RDPS_WindSpeed_IsbL-0250_RLatLon0.09_PT048H.grib2 2026-05-01 15:14 450K
20260501T12Z_MSC_RDPS_WindSpeed_IsbL-0275_RLatLon0.09_PT048H.grib2 2026-05-01 15:14 467K
20260501T12Z_MSC_RDPS_WindSpeed_IsbL-0300_RLatLon0.09_PT048H.grib2 2026-05-01 15:14 464K
20260501T12Z_MSC_RDPS_WindSpeed_IsbL-0350_RLatLon0.09_PT048H.grib2 2026-05-01 15:14 478K
20260501T12Z_MSC_RDPS_WindSpeed_IsbL-0400_RLatLon0.09_PT048H.grib2 2026-05-01 15:14 465K
20260501T12Z_MSC_RDPS_WindSpeed_IsbL-0450_RLatLon0.09_PT048H.grib2 2026-05-01 15:14 464K
20260501T12Z_MSC_RDPS_WindSpeed_IsbL-0500_RLatLon0.09_PT048H.grib2 2026-05-01 15:14 465K
20260501T12Z_MSC_RDPS_WindSpeed_IsbL-0550_RLatLon0.09_PT048H.grib2 2026-05-01 15:14 584K
20260501T12Z_MSC_RDPS_WindSpeed_IsbL-0600_RLatLon0.09_PT048H.grib2 2026-05-01 15:14 591K
20260501T12Z_MSC_RDPS_WindSpeed_IsbL-0650_RLatLon0.09_PT048H.grib2 2026-05-01 15:14 609K
20260501T12Z_MSC_RDPS_WindSpeed_IsbL-0700_RLatLon0.09_PT048H.grib2 2026-05-01 15:14 634K
20260501T12Z_MSC_RDPS_WindSpeed_IsbL-0750_RLatLon0.09_PT048H.grib2 2026-05-01 15:14 709K
20260501T12Z_MSC_RDPS_WindSpeed_IsbL-0800_RLatLon0.09_PT048H.grib2 2026-05-01 15:14 761K
20260501T12Z_MSC_RDPS_WindSpeed_IsbL-0850_RLatLon0.09_PT048H.grib2 2026-05-01 15:14 823K
20260501T12Z_MSC_RDPS_WindSpeed_IsbL-0875_RLatLon0.09_PT048H.grib2 2026-05-01 15:14 849K
20260501T12Z_MSC_RDPS_WindSpeed_IsbL-0900_RLatLon0.09_PT048H.grib2 2026-05-01 15:14 862K
20260501T12Z_MSC_RDPS_WindSpeed_IsbL-0925_RLatLon0.09_PT048H.grib2 2026-05-01 15:14 873K
20260501T12Z_MSC_RDPS_WindSpeed_IsbL-0950_RLatLon0.09_PT048H.grib2 2026-05-01 15:14 872K
20260501T12Z_MSC_RDPS_WindSpeed_IsbL-0970_RLatLon0.09_PT048H.grib2 2026-05-01 15:14 869K
20260501T12Z_MSC_RDPS_WindSpeed_IsbL-0985_RLatLon0.09_PT048H.grib2 2026-05-01 15:14 864K
20260501T12Z_MSC_RDPS_WindSpeed_IsbL-1000_RLatLon0.09_PT048H.grib2 2026-05-01 15:14 858K
20260501T12Z_MSC_RDPS_WindSpeed_IsbL-1015_RLatLon0.09_PT048H.grib2 2026-05-01 15:14 848K
20260501T12Z_MSC_RDPS_WindU_AGL-10m_RLatLon0.09_PT048H.grib2 2026-05-01 15:14 436K
20260501T12Z_MSC_RDPS_WindU_AGL-120m_RLatLon0.09_PT048H.grib2 2026-05-01 15:14 425K
20260501T12Z_MSC_RDPS_WindU_AGL-40m_RLatLon0.09_PT048H.grib2 2026-05-01 15:14 544K
20260501T12Z_MSC_RDPS_WindU_AGL-80m_RLatLon0.09_PT048H.grib2 2026-05-01 15:14 426K
20260501T12Z_MSC_RDPS_WindU_IsbL-0001_RLatLon0.09_PT048H.grib2 2026-05-01 15:14 244K
20260501T12Z_MSC_RDPS_WindU_IsbL-0005_RLatLon0.09_PT048H.grib2 2026-05-01 15:14 282K
20260501T12Z_MSC_RDPS_WindU_IsbL-0010_RLatLon0.09_PT048H.grib2 2026-05-01 15:14 297K
20260501T12Z_MSC_RDPS_WindU_IsbL-0020_RLatLon0.09_PT048H.grib2 2026-05-01 15:14 316K
20260501T12Z_MSC_RDPS_WindU_IsbL-0030_RLatLon0.09_PT048H.grib2 2026-05-01 15:14 354K
20260501T12Z_MSC_RDPS_WindU_IsbL-0050_RLatLon0.09_PT048H.grib2 2026-05-01 15:14 380K
20260501T12Z_MSC_RDPS_WindU_IsbL-0100_RLatLon0.09_PT048H.grib2 2026-05-01 15:14 336K
20260501T12Z_MSC_RDPS_WindU_IsbL-0150_RLatLon0.09_PT048H.grib2 2026-05-01 15:14 397K
20260501T12Z_MSC_RDPS_WindU_IsbL-0175_RLatLon0.09_PT048H.grib2 2026-05-01 15:14 323K
20260501T12Z_MSC_RDPS_WindU_IsbL-0200_RLatLon0.09_PT048H.grib2 2026-05-01 15:14 335K
20260501T12Z_MSC_RDPS_WindU_IsbL-0225_RLatLon0.09_PT048H.grib2 2026-05-01 15:14 340K
20260501T12Z_MSC_RDPS_WindU_IsbL-0250_RLatLon0.09_PT048H.grib2 2026-05-01 15:14 341K
20260501T12Z_MSC_RDPS_WindU_IsbL-0275_RLatLon0.09_PT048H.grib2 2026-05-01 15:14 356K
20260501T12Z_MSC_RDPS_WindU_IsbL-0300_RLatLon0.09_PT048H.grib2 2026-05-01 15:14 352K
20260501T12Z_MSC_RDPS_WindU_IsbL-0350_RLatLon0.09_PT048H.grib2 2026-05-01 15:14 363K
20260501T12Z_MSC_RDPS_WindU_IsbL-0400_RLatLon0.09_PT048H.grib2 2026-05-01 15:14 470K
20260501T12Z_MSC_RDPS_WindU_IsbL-0450_RLatLon0.09_PT048H.grib2 2026-05-01 15:14 469K
20260501T12Z_MSC_RDPS_WindU_IsbL-0500_RLatLon0.09_PT048H.grib2 2026-05-01 15:14 472K
20260501T12Z_MSC_RDPS_WindU_IsbL-0550_RLatLon0.09_PT048H.grib2 2026-05-01 15:14 473K
20260501T12Z_MSC_RDPS_WindU_IsbL-0600_RLatLon0.09_PT048H.grib2 2026-05-01 15:14 479K
20260501T12Z_MSC_RDPS_WindU_IsbL-0650_RLatLon0.09_PT048H.grib2 2026-05-01 15:14 479K
20260501T12Z_MSC_RDPS_WindU_IsbL-0700_RLatLon0.09_PT048H.grib2 2026-05-01 15:14 501K
20260501T12Z_MSC_RDPS_WindU_IsbL-0750_RLatLon0.09_PT048H.grib2 2026-05-01 15:14 528K
20260501T12Z_MSC_RDPS_WindU_IsbL-0800_RLatLon0.09_PT048H.grib2 2026-05-01 15:14 574K
20260501T12Z_MSC_RDPS_WindU_IsbL-0850_RLatLon0.09_PT048H.grib2 2026-05-01 15:14 630K
20260501T12Z_MSC_RDPS_WindU_IsbL-0875_RLatLon0.09_PT048H.grib2 2026-05-01 15:14 652K
20260501T12Z_MSC_RDPS_WindU_IsbL-0900_RLatLon0.09_PT048H.grib2 2026-05-01 15:14 662K
20260501T12Z_MSC_RDPS_WindU_IsbL-0925_RLatLon0.09_PT048H.grib2 2026-05-01 15:14 668K
20260501T12Z_MSC_RDPS_WindU_IsbL-0950_RLatLon0.09_PT048H.grib2 2026-05-01 15:14 665K
20260501T12Z_MSC_RDPS_WindU_IsbL-0970_RLatLon0.09_PT048H.grib2 2026-05-01 15:14 663K
20260501T12Z_MSC_RDPS_WindU_IsbL-0985_RLatLon0.09_PT048H.grib2 2026-05-01 15:14 659K
20260501T12Z_MSC_RDPS_WindU_IsbL-1000_RLatLon0.09_PT048H.grib2 2026-05-01 15:14 795K
20260501T12Z_MSC_RDPS_WindU_IsbL-1015_RLatLon0.09_PT048H.grib2 2026-05-01 15:14 787K
20260501T12Z_MSC_RDPS_WindV_AGL-10m_RLatLon0.09_PT048H.grib2 2026-05-01 15:14 437K
20260501T12Z_MSC_RDPS_WindV_AGL-120m_RLatLon0.09_PT048H.grib2 2026-05-01 15:14 426K
20260501T12Z_MSC_RDPS_WindV_AGL-40m_RLatLon0.09_PT048H.grib2 2026-05-01 15:14 545K
20260501T12Z_MSC_RDPS_WindV_AGL-80m_RLatLon0.09_PT048H.grib2 2026-05-01 15:14 426K
20260501T12Z_MSC_RDPS_WindV_IsbL-0001_RLatLon0.09_PT048H.grib2 2026-05-01 15:14 247K
20260501T12Z_MSC_RDPS_WindV_IsbL-0005_RLatLon0.09_PT048H.grib2 2026-05-01 15:14 286K
20260501T12Z_MSC_RDPS_WindV_IsbL-0010_RLatLon0.09_PT048H.grib2 2026-05-01 15:14 300K
20260501T12Z_MSC_RDPS_WindV_IsbL-0020_RLatLon0.09_PT048H.grib2 2026-05-01 15:14 319K
20260501T12Z_MSC_RDPS_WindV_IsbL-0030_RLatLon0.09_PT048H.grib2 2026-05-01 15:14 317K
20260501T12Z_MSC_RDPS_WindV_IsbL-0050_RLatLon0.09_PT048H.grib2 2026-05-01 15:14 344K
20260501T12Z_MSC_RDPS_WindV_IsbL-0100_RLatLon0.09_PT048H.grib2 2026-05-01 15:14 430K
20260501T12Z_MSC_RDPS_WindV_IsbL-0150_RLatLon0.09_PT048H.grib2 2026-05-01 15:14 398K
20260501T12Z_MSC_RDPS_WindV_IsbL-0175_RLatLon0.09_PT048H.grib2 2026-05-01 15:14 419K
20260501T12Z_MSC_RDPS_WindV_IsbL-0200_RLatLon0.09_PT048H.grib2 2026-05-01 15:14 335K
20260501T12Z_MSC_RDPS_WindV_IsbL-0225_RLatLon0.09_PT048H.grib2 2026-05-01 15:14 365K
20260501T12Z_MSC_RDPS_WindV_IsbL-0250_RLatLon0.09_PT048H.grib2 2026-05-01 15:14 367K
20260501T12Z_MSC_RDPS_WindV_IsbL-0275_RLatLon0.09_PT048H.grib2 2026-05-01 15:14 379K
20260501T12Z_MSC_RDPS_WindV_IsbL-0300_RLatLon0.09_PT048H.grib2 2026-05-01 15:14 377K
20260501T12Z_MSC_RDPS_WindV_IsbL-0350_RLatLon0.09_PT048H.grib2 2026-05-01 15:14 361K
20260501T12Z_MSC_RDPS_WindV_IsbL-0400_RLatLon0.09_PT048H.grib2 2026-05-01 15:14 364K
20260501T12Z_MSC_RDPS_WindV_IsbL-0450_RLatLon0.09_PT048H.grib2 2026-05-01 15:14 365K
20260501T12Z_MSC_RDPS_WindV_IsbL-0500_RLatLon0.09_PT048H.grib2 2026-05-01 15:14 470K
20260501T12Z_MSC_RDPS_WindV_IsbL-0550_RLatLon0.09_PT048H.grib2 2026-05-01 15:14 471K
20260501T12Z_MSC_RDPS_WindV_IsbL-0600_RLatLon0.09_PT048H.grib2 2026-05-01 15:14 476K
20260501T12Z_MSC_RDPS_WindV_IsbL-0650_RLatLon0.09_PT048H.grib2 2026-05-01 15:14 491K
20260501T12Z_MSC_RDPS_WindV_IsbL-0700_RLatLon0.09_PT048H.grib2 2026-05-01 15:14 513K
20260501T12Z_MSC_RDPS_WindV_IsbL-0750_RLatLon0.09_PT048H.grib2 2026-05-01 15:14 539K
20260501T12Z_MSC_RDPS_WindV_IsbL-0800_RLatLon0.09_PT048H.grib2 2026-05-01 15:14 583K
20260501T12Z_MSC_RDPS_WindV_IsbL-0850_RLatLon0.09_PT048H.grib2 2026-05-01 15:14 637K
20260501T12Z_MSC_RDPS_WindV_IsbL-0875_RLatLon0.09_PT048H.grib2 2026-05-01 15:14 659K
20260501T12Z_MSC_RDPS_WindV_IsbL-0900_RLatLon0.09_PT048H.grib2 2026-05-01 15:14 668K
20260501T12Z_MSC_RDPS_WindV_IsbL-0925_RLatLon0.09_PT048H.grib2 2026-05-01 15:14 668K
20260501T12Z_MSC_RDPS_WindV_IsbL-0950_RLatLon0.09_PT048H.grib2 2026-05-01 15:14 665K
20260501T12Z_MSC_RDPS_WindV_IsbL-0970_RLatLon0.09_PT048H.grib2 2026-05-01 15:14 663K
20260501T12Z_MSC_RDPS_WindV_IsbL-0985_RLatLon0.09_PT048H.grib2 2026-05-01 15:14 659K
20260501T12Z_MSC_RDPS_WindV_IsbL-1000_RLatLon0.09_PT048H.grib2 2026-05-01 15:14 795K
20260501T12Z_MSC_RDPS_WindV_IsbL-1015_RLatLon0.09_PT048H.grib2 2026-05-01 15:14 788K